Starlink 35342

operational
NORAD ID: 66181 Int'l Des: 2025-243 Owner: SPXS Country: US Constellation: starlink
LEOCIRCULAR

Über Starlink 35342

Beschreibung wird geladen...

Live-Position

3D-Globus wird geladen...

Nächste Überflüge

Höhenverlauf

Altitude vs Time

uPlot chart will show altitude changes over time

Zweizeiliger Elementsatz

1 66181U 25243E 25350.95327261 .00023443 00000-0 80126-3 0 9994
2 66181 53.1602 269.7563 0001053 133.6096 226.4992 15.30195220 7982
Epoch: 16. Dez. 2025 • Age: 8 hours

Aktueller Status

Höhe 484.2 km
Geschwindigkeit 7.62 km/s
Subsatellitenpunkt -27.80°S, 60.56°E
Startdatum 26. Okt. 2025
Alter 0.1 years
Typ internet

Technische Details

Klassifizierung Payload
Masse 575.00 kg
Trockenmasse 530.00 kg
Gesamtmasse 575.00 kg
Länge 0.30 m
Durchmesser 4.10 m
Spannweite 29.00 m
Form Box + pan
Hersteller SPXS
Bus-Typ Starlink V2MO
Phasenstatus In Orbit
Besitzer/Staat SPXS/US

Große Konstellationen

Loading constellations...